Location: Campagnette
(50.6659°N, 2.1180°E)
Time: 14:09:08
(UTC+00:00)

Daily predictions for brighter satellites

Satellite Brightness Start Highest point End
(mag) Time Altitude Azimuth Time Altitude Azimuth Time Altitude Azimuth
CZ-4B R/B 1.0 20:42:18 10° NNE 20:45:12 89° WSW 20:48:05 10° SSW
ATLAS 2AS CENTAUR R/B 4.3 20:42:11 10° WNW 20:47:55 27° WSW 20:53:22 10° SSW
USA 234 4.1 20:41:42 10° ENE 20:48:02 52° N 20:54:21 10° WNW
ARIANE 5 R/B 3.8 20:45:01 10° SE 20:48:53 30° ENE 20:52:44 10° N
Terra 2.5 20:44:48 10° SE 20:49:16 41° ENE 20:53:45 10° N
SPOT 3 Rocket 3.6 20:45:47 10° SSE 20:51:00 88° ENE 20:56:16 10° NNW
RESURS DK-1 3.5 20:47:49 10° NW 20:51:40 38° WSW 20:55:29 10° S
SPOT 5 2.8 20:47:41 10° SSE 20:51:57 58° ENE 20:56:13 10° N
USA 276 1.9 20:49:38 10° W 20:52:40 78° S 20:55:41 10° E
FALCON 9 DEB 3.0 20:50:40 10° WNW 20:53:56 81° NNE 20:57:12 10° ESE
Cosmos 1455 3.9 20:50:45 10° NNW 20:54:10 31° W 20:57:34 10° SSW
Cosmos 1726 Rocket 4.0 20:52:38 10° N 20:56:49 46° ENE 21:01:00 10° SSE
IRAS Rocket 4.3 20:56:03 10° NNE 21:01:41 80° ESE 21:07:14 10° SSW
Cosmos 2074 Rocket 4.3 20:56:55 10° NNW 21:03:12 74° W 21:09:23 10° S
Cosmos 1331 Rocket 4.0 20:58:06 10° SSW 21:03:23 75° ESE 21:08:42 10° NNE
Cosmos 2082 Rocket 2.8 20:59:18 10° S 21:04:33 39° ESE 21:09:47 10° NE
Helios 1A Rocket 2.9 21:05:12 10° SSE 21:09:17 78° ENE 21:13:25 10° NNW
Spot 2 Rocket 3.6 21:04:37 10° SSE 21:09:43 87° ENE 21:14:53 10° NNW
Cosmos 1328 4.1 21:05:56 10° S 21:09:49 52° E 21:13:43 10° NNE
Cosmos 2084 Rocket 3.8 21:06:16 10° NW 21:10:02 48° SW 21:13:53 10° SSE
Cosmos 2360 Rocket 4.2 21:07:29 10° NNW 21:11:42 21° NE 21:15:53 10° E
Nadezhda 1 Rocket 3.9 21:09:11 10° S 21:15:13 76° E 21:21:18 10° NNE
X-37B 2.7 21:23:36 10° SW 21:24:28 11° SSW 21:25:20 10° S
ERS-1 Rocket 3.1 21:22:17 10° S 21:27:19 78° WSW 21:32:24 10° NNW
Cosmos 1892 3.4 21:26:26 13° SSE 21:29:21 35° E 21:32:51 10° NNE
Meteor 1-21 Rocket 4.4 21:26:24 10° SSW 21:32:01 78° WNW 21:37:48 10° N
Cosmos 2228 4.2 21:30:24 10° NNW 21:34:21 39° W 21:38:17 10° SSW
Cosmos 1302 Rocket 4.0 21:30:20 10° SSW 21:35:29 70° ESE 21:40:40 10° NNE
Cosmos 2154 Rocket 4.5 21:31:26 10° NNW 21:37:32 59° W 21:43:34 10° S
Cosmos 192 4.3 21:33:50 10° SSW 21:38:43 85° ESE 21:43:40 10° NNE
Cosmos 968 Rocket 3.8 21:36:45 10° NNW 21:41:55 64° WSW 21:46:30 13° S
Cosmos 1892 Rocket 3.5 21:38:11 10° S 21:42:34 78° E 21:46:56 10° NNE
ASTRO F (AKARI) 4.5 21:40:19 16° SSE 21:43:01 80° ENE 21:46:31 10° NNW
Cosmos 1697 Rocket 4.0 21:39:22 10° NW 21:44:18 32° WSW 21:49:13 10° SSW
Cosmos 1980 Rocket 2.6 21:39:39 10° NW 21:45:16 59° WSW 21:50:07 14° S
Cosmos 2219 Rocket 4.4 21:43:26 10° N 21:47:23 19° NNE 21:51:20 10° ENE
SL-16 R/B 2.8 21:42:32 10° NNW 21:48:06 51° NE 21:52:57 13° SE
Cosmos 2058 Rocket 3.1 21:45:16 10° N 21:49:43 89° W 21:53:20 16° S
Cosmos 1408 2.3 21:48:44 14° S 21:51:35 77° E 21:55:03 10° NNE
SL-8 Rocket 4.0 21:46:35 10° N 21:52:51 79° E 21:58:01 15° SSE
Cosmos 1626 Rocket 4.3 21:50:06 17° SSE 21:52:52 36° E 21:56:52 10° NNE
Cosmos 2369 4.4 21:48:10 10° NW 21:53:38 46° WSW 21:58:31 13° S
CZ-2C R/B 3.8 21:49:06 10° NNE 21:53:40 80° WNW 21:58:08 10° SSW
ATLAS 5 CENTAUR R/B 1.7 21:50:51 10° SSW 21:54:21 40° ESE 21:58:16 10° NE
USA 267 4.1 21:48:58 10° ENE 21:54:21 27° SE 21:59:31 11° S
Resurs 01 Rocket 4.4 21:53:49 10° WSW 21:55:15 11° W 21:56:42 10° WNW
SJ 16-02 2.5 21:56:11 10° N 22:00:17 35° ENE 22:03:35 14° ESE
SL-4 R/B 3.8 22:04:44 12° ESE 22:04:44 12° ESE 22:05:18 10° E
In-Cosmos 22 Rocket 4.2 21:59:04 14° S 22:03:46 65° E 22:09:08 10° NNE
COSMOS 2406 3.7 21:59:06 10° SW 22:04:49 64° WNW 22:10:34 10° NNE
Cosmos 1825 2.3 22:07:59 21° S 22:10:17 58° E 22:14:00 10° NNE
Cosmos 1833 Rocket 4.1 22:05:06 10° WSW 22:10:21 39° NW 22:15:38 10° NNE
Cosmos 1867 4.5 22:06:30 10° NW 22:11:31 38° WSW 22:15:18 16° S
Cosmos 2366 rocket 4.1 22:06:52 10° N 22:13:15 89° WSW 22:18:15 17° S
Cosmos 1869 3.2 22:12:06 10° N 22:16:01 88° ENE 22:18:26 23° S
Cosmos 2218 Rocket 4.1 22:13:16 10° NNW 22:19:43 82° W 22:24:43 18° S
Cosmos 2322 Rocket 2.5 22:16:32 10° NNW 22:22:12 64° ENE 22:26:28 18° SE
GP-B 3.3 22:18:41 10° N 22:23:07 71° W 22:26:27 17° SSW
Meteor 1-27 4.3 22:17:49 10° NNW 22:23:23 75° W 22:27:28 19° S
ARIANE 5 R/B 3.8 22:21:46 13° SSW 22:25:15 36° W 22:29:21 10° NNW
Terra 3.3 22:23:00 10° SSW 22:27:08 29° W 22:31:18 10° NNW
SAR-Lupe-4 3.5 22:23:48 10° NNE 22:27:24 85° ESE 22:29:35 22° SSW
USA 276 2.7 22:25:25 10° W 22:28:13 35° SSW 22:28:42 33° S
FALCON 9 DEB 4.2 22:27:10 10° W 22:29:58 26° SW 22:30:31 25° SSW
USA 234 3.5 22:24:08 10° ESE 22:30:40 73° NNE 22:37:14 10° WNW
BREEZE-M DEB (TANK) 3.4 22:33:04 10° W 22:36:01 73° S 22:46:26 10° ESE
Cosmos 1633 2.4 22:39:00 31° S 22:40:29 66° E 22:43:56 10° NNE
Cosmos 2333 Rocket 3.2 22:37:32 10° NNW 22:43:02 43° NE 22:48:05 12° ESE
Cosmos 1992 Rocket 4.2 22:37:49 10° SSW 22:43:03 74° WNW 22:48:19 10° NNE
Okean 1-7 Rocket 3.9 22:40:57 17° SSW 22:44:22 64° WNW 22:48:53 10° N
Cosmos 1758 Rocket 3.7 22:42:25 26° SSE 22:44:43 61° E 22:49:05 10° NNE
ASTEX 1 4.1 22:42:06 10° N 22:46:57 51° WNW 22:51:10 13° SSW
Cosmos 2082 Rocket 3.3 22:43:08 10° SW 22:48:35 45° NW 22:54:04 10° NNE
Cosmos 1606 2.8 22:48:45 10° N 22:52:37 70° ENE 22:54:21 31° SSE
Cosmos-2242 2.9 22:48:44 10° N 22:53:01 86° WSW 22:55:10 29° S
Cosmos 1812 Rocket 3.7 22:49:17 10° NNW 22:53:44 70° W 22:56:09 26° S
Cosmos 2360 Rocket 2.3 22:50:59 10° NNW 22:56:42 75° ENE 23:00:31 22° SE
ADEOS Rocket 3.6 22:53:14 20° SSE 22:58:41 76° ENE 23:06:29 10° NNW
Cosmos 1340 Rocket 3.8 22:58:42 25° SE 23:00:03 33° E 23:03:39 10° NNE
Gbstr 26 Del rocket 3.6 22:59:00 28° S 23:00:23 36° SE 23:04:53 10° ENE
Cosmos 1821 Rocket 4.1 23:01:13 10° NNW 23:07:26 73° W 23:11:22 23° S
Cosmos 1602 Rocket 3.9 23:05:35 22° SSW 23:08:17 61° WNW 23:12:35 10° N
BREEZE-M DEB (TANK) 4.3 23:12:25 18° ESE 23:12:25 18° ESE 23:14:43 10° E
SL-27 R/B 4.2 23:13:18 17° ESE 23:13:27 17° E 23:15:39 10° ENE
Cosmos 972 Rocket 4.2 23:09:57 10° NNW 23:15:10 74° ENE 23:18:41 24° SSE
Cosmos 44 3.7 23:14:09 29° SSE 23:15:36 38° ESE 23:19:45 10° NE
ERS-2 3.0 23:18:44 10° NNE 23:22:03 34° E 23:22:56 29° SE
Cosmos 2237 Rocket 4.3 23:18:05 10° NNW 23:22:34 23° NE 23:27:00 10° E
ALOS 2 2.6 23:21:37 31° S 23:23:40 71° WSW 23:28:05 10° NNW
Cosmos 1605 Rocket 4.5 23:17:52 10° N 23:24:10 55° ENE 23:28:27 21° SE
Spot 4 4.4 23:21:49 25° SSW 23:24:18 48° W 23:28:59 10° NNW
CENTAUR R/B 3.9 23:22:31 16° SE 23:24:36 19° ESE 23:29:07 10° ENE
COSMOS 2428 3.5 23:23:58 10° NNW 23:29:30 47° NE 23:34:38 12° SE
NOSS 8 (A) 4.4 23:29:30 46° SSE 23:29:59 52° SE 23:32:53 10° NE
Cosmos 1777 Rocket 4.4 23:25:20 10° NNW 23:30:29 53° WSW 23:33:07 27° S
H-2A R/B 3.4 23:26:33 10° NNE 23:30:47 87° WNW 23:32:48 30° SSW
Cosmos 2058 2.9 23:29:58 31° SSW 23:31:54 83° WNW 23:36:06 10° N
SL-16 R/B 3.2 23:26:59 10° NW 23:32:00 33° WSW 23:34:48 21° SSW
Nadezhda 3 Rocket 4.1 23:28:02 22° SSW 23:32:13 73° WNW 23:38:25 10° N
Cosmos 2219 Rocket 2.5 23:26:49 10° NNW 23:32:29 65° ENE 23:36:41 18° SE
Cosmos 1953 Rocket 3.6 23:33:03 32° S 23:35:03 75° E 23:39:28 10° NNE
USA 267 3.2 23:31:31 10° ENE 23:38:05 76° SE 23:44:38 10° SW
SJ 16-02 2.5 23:34:52 10° NW 23:38:47 31° WSW 23:40:31 23° SW
ATLAS 5 CENTAUR R/B 3.0 23:35:19 10° W 23:38:55 35° NNW 23:43:03 10° NE
Cosmos 2322 3.9 23:35:57 10° NNW 23:41:40 70° ENE 23:45:45 19° SE
SL-4 R/B 1.5 23:40:05 26° SW 23:41:52 63° SSE 23:45:32 10° ENE
Cosmos 1898 Rocket 4.3 23:37:59 10° NNW 23:43:01 47° ENE 23:47:02 15° SE
Cosmos 1825 Rocket 3.8 23:41:10 27° SSW 23:43:23 61° WNW 23:47:44 10° N
COSMOS 2455 4.1 23:44:26 10° NNW 23:50:04 39° NE 23:55:41 10° ESE
Cosmos 2221 2.5 23:45:55 10° N 23:50:18 86° W 23:52:14 33° S
PSLV R/B 4.0 23:48:43 10° NNE 23:53:26 61° E 23:55:36 30° S
